Flag for Benin Weather past 2 weeks in Porto Novo, Benin

Now
82 °F

Broken clouds.


Feels Like: 92 °F
Forecast: 77 / 90 °F
Wind: 9 mph from Southwest

Location: Cotonou Airport

Current Time: Oct 23, 2014 at 7:23:05 PM

Latest Report: Oct 23, 2014 at 6:00 PM


Visibility: N/A

Pressure: 29.83 "Hg

Humidity: 89%

Dew point: 79 °F

Location of Porto NovoLocation

Historic Weather in Porto Novo — Graph

°F

Porto Novo temperature yesterday

Maximum temperature yesterday: 88 °F (at 2:00 PM)
Minimum temperature yesterday: 79 °F (at 12:00 AM)
Average temperature yesterday: 82 °F

Past Weeks' High & Low Weather Summary

 TemperatureHumidityPressure
High88 °F (Oct 13, 3:00 PM)100% (Oct 8, 9:00 PM)29.98 "Hg (Oct 8, 9:00 PM)
Low73 °F (Oct 11, 6:00 AM)74% (Oct 19, 11:00 AM)29.77 "Hg (Oct 10, 3:00 PM)
Average81 °F92%29.86 "Hg
* Reported Oct 8 6:00 PM — Oct 23 6:00 PM, Porto Novo, Weather by CustomWeather, © 2014

Note: Actual official high and low records may vary slightly from our data, if they occured in-between our weather recording intervals... More about our weather records

Advertising

Porto Novo weather history for previous 24 hours

 ConditionsComfort  
Time TempWeatherWind HumidityBarometerVisibility
6:00 PM
Oct 23
82 °FBroken clouds.9 mph89%29.83 "HgN/A
5:00 PM84 °FBroken clouds.9 mph84%29.80 "HgN/A
4:00 PM84 °FBroken clouds.12 mph84%29.83 "HgN/A
3:00 PM86 °FScattered clouds.14 mph79%29.83 "HgN/A
2:00 PM86 °FScattered clouds.15 mph84%29.83 "HgN/A
1:00 PM86 °FScattered clouds.13 mph84%29.89 "HgN/A
12:00 PM86 °FScattered clouds.15 mph84%29.92 "HgN/A
11:00 AM86 °FScattered clouds.13 mph75%29.92 "HgN/A
10:00 AM84 °FScattered clouds.9 mph84%29.92 "HgN/A
9:00 AM81 °FScattered clouds.6 mph94%29.92 "Hg5 mi
8:00 AM77 °FScattered clouds.6 mph100%29.92 "Hg5 mi
7:00 AM77 °FScattered clouds.2 mph100%29.89 "Hg5 mi
6:00 AM77 °FPassing clouds.3 mph100%29.86 "Hg5 mi
5:00 AM79 °FPassing clouds.9 mph100%29.83 "Hg5 mi
4:00 AM79 °FPassing clouds.8 mph94%29.83 "Hg5 mi
3:00 AM79 °FPassing clouds.7 mph100%29.83 "Hg5 mi
2:00 AM79 °FWarm.8 mph100%29.86 "HgN/A
10:00 PM
Oct 22
81 °FPassing clouds.10 mph94%29.92 "HgN/A
9:00 PM81 °FPassing clouds.9 mph94%29.89 "HgN/A
8:00 PM81 °FThunderstorms. Passing clouds.12 mph94%29.89 "HgN/A
7:00 PM81 °FPassing clouds.13 mph94%29.86 "HgN/A
Weather by CustomWeather, © 2014

See weather overviewHow to use our weather pages